Flag for Brazil Weather past 2 weeks in Niterói, Rio de Janeiro, Brazil

Now
73 °F

Clear.


Feels Like: 74 °F
Forecast: 72 / 85 °F
Wind: 3 mph from North

Location: Rio De Janeiro Airport

Current Time: May 25, 2015 at 1:32:02 AM

Latest Report: May 24, 2015 at 11:00 PM


Visibility: 10 mi

Pressure: 29.98 "Hg

Humidity: 78%

Dew point: 66 °F

Location of NiteróiLocation

Historic Weather in Niterói — Graph

°F

Niterói temperature yesterday

Maximum temperature yesterday: 84 °F (at 3:00 PM)
Minimum temperature yesterday: 68 °F (at 6:00 AM)
Average temperature yesterday: 75 °F

Past Weeks' High & Low Weather Summary

 TemperatureHumidityPressure
High84 °F (May 11, 10:00 AM)94% (May 10, 6:00 AM)30.27 "Hg (May 10, 6:00 AM)
Low66 °F (May 10, 6:00 AM)48% (May 11, 11:00 AM)29.77 "Hg (May 11, 1:00 PM)
Average74 °F76%30.10 "Hg
* Reported May 9 11:00 PM — May 24 11:00 PM, Niterói, Weather by CustomWeather, © 2015

Note: Actual official high and low records may vary slightly from our data, if they occured in-between our weather recording intervals... More about our weather records

Advertising

Niterói weather history for previous 24 hours

 ConditionsComfort  
Time TempWeatherWind HumidityBarometerVisibility
11:00 PM
Sun, May 24
73 °FClear.3 mph78%29.98 "Hg10 mi
10:00 PM73 °FClear.1 mph74%29.98 "Hg10 mi
9:00 PM72 °FClear.5 mph78%29.98 "Hg10 mi
8:00 PM72 °FClear.5 mph83%29.98 "Hg10 mi
7:00 PM73 °FClear.5 mph74%29.95 "Hg10 mi
6:00 PM75 °FClear.7 mph65%29.95 "Hg10 mi
5:00 PM77 °FClear.10 mph57%29.92 "Hg10 mi
4:00 PM79 °FSunny.9 mph61%29.92 "Hg10 mi
3:00 PM84 °FSunny.1 mph51%29.89 "Hg10 mi
2:00 PM82 °FSunny.6 mph62%29.89 "Hg10 mi
1:00 PM81 °FSunny.6 mph62%29.92 "Hg10 mi
12:00 PM81 °FSunny.8 mph70%29.95 "Hg10 mi
11:00 AM77 °FSunny.7 mph74%29.98 "Hg10 mi
10:00 AM73 °FSunny.8 mph78%30.01 "Hg10 mi
9:00 AM73 °FSunny.8 mph78%30.01 "Hg10 mi
8:00 AM72 °FSunny.6 mph88%30.01 "Hg10 mi
7:00 AM68 °FSunny.5 mph94%29.98 "Hg10 mi
6:00 AM68 °FSunny.5 mph88%29.95 "Hg10 mi
Weather by CustomWeather, © 2015

See weather overviewHow to use our weather pages